Regional Weather Roundup
Issued by NWS Sioux Falls, SD

Home | Current Version | Previous Version | Graphics & Text | Print | Product List | Glossary On
Versions: 1 2 3 4 5 6 7 8 9 10 11 12 13 14 15 16 17 18 19 20 21 22 23 24 25 26 27 28 29 30 31 32 33 34 35 36 37 38 39 40 41 42 43 44 45 46 47 48 49 50
000
ASUS43 KFSD 240410
RWRFSD

WEATHER ROUNDUP FOR SE SOUTH DAKOTA/SW MINNESOTA/NW IOWA
NATIONAL WEATHER SERVICE SIOUX FALLS SD
1100 PM CDT SAT JUL 23 2016

NOTE: "FAIR" INDICATES FEW OR NO CLOUDS BELOW 12,000 FEET WITH NO
SIGNIFICANT WEATHER AND OR OBSTRUCTIONS TO VISIBILITY.


SDZ038>040-050-052>070-240500-
SOUTHEAST SOUTH DAKOTA

CITY           SKY/WX    TMP DP  RH WIND       PRES   REMARKS
BROOKINGS      CLEAR     79  74  84 NW10      29.81R
CHAMBERLAIN    CLEAR     78  63  59 NW7       29.89R
HURON          CLEAR     72  68  87 NW7       29.84R
MADISON        FAIR      77  77 100 NW15G22   29.83R
MITCHELL       CLEAR     79  70  74 N13       29.84R
SIOUX FALLS    PTCLDY    84  76  76 SW6       29.78R
WINNER         FAIR      73  57  57 NW7       29.93R
YANKTON        PTCLDY    84  75  74 SW8       29.77R
$$

MNZ071-072-080-081-089-090-097-098-240500-
SOUTHWEST MINNESOTA

CITY           SKY/WX    TMP DP  RH WIND       PRES   REMARKS
FAIRMONT       CLEAR     77  73  88 S7        29.78R
JACKSON        CLEAR     79  73  83 S6        29.80R
LUVERNE        CLEAR     77  73  88 S3        29.79R
MARSHALL       CLEAR     81  78  91 S9        29.75R
MONTEVIDEO     CLEAR     79  79 100 S8        29.75S
REDWOOD FALLS  CLEAR     79  76  90 SE3       29.75R
TRACY          CLEAR     82  78  90 SW9       29.77R
WINDOM         CLEAR     81  75  83 S5        29.78S
WORTHINGTON    CLEAR     80  77  90 SW9       29.80S
$$

IAZ001>003-012>014-020>022-031-032-NEZ013-014-SDZ071-240500-
NORTHWEST IOWA

CITY           SKY/WX    TMP DP  RH WIND       PRES   REMARKS
CHEROKEE       CLEAR     79  78  96 S6        29.79S
DENISON        CLOUDY    82  77  83 S9G16     29.80R
ESTHERVILLE    CLEAR     76  75  97 S6        29.79R
LE MARS        CLEAR     81  77  89 S6        29.79R
SHELDON        CLEAR     79  77  94 SW7       29.78R
SIOUX CITY     CLEAR     82  76  81 SE7       29.78R
SPENCER        CLEAR     78  76  93 S6        29.79R
STORM LAKE     CLOUDY    79  77  94 S8        29.82R
$$

ABBREVIATIONS USED IN REMARKS
   TC - TEMPERATURE IN CELSIUS
  WCI - WIND CHILL INDEX
   HX - HEAT INDEX
  VSB - VISIBILITY





USA.gov is the U.S. government's official web portal to all federal, state and local government web resources and services.